Location: Bonnesvalyn
(49.1218°N, 3.3177°E)
Time: 00:11:54
(UTC+00:00)

Cosmos 2285 Rocket - Pass Details

Date: 09 February 2023
Orbit: 971 x 998 km, 74.0° (Epoch: 01 April)

Event Time Altitude Azimuth Distance (km) Brightness Sun altitude
Rises 19:32:18 0° 337° (NNW) 3,691 7.4 -25.8°
Reaches altitude 10° 19:34:53 10° 340° (NNW) 2,736 6.7 -26.3°
Enters shadow 19:41:11 68° 62° (ENE) 1,047 3.9 -27.3°
